Time,TemperatureF,DewpointF,PressureIn,WindDirection,WindDirectionDegrees,WindSpeedMPH,WindSpeedGustMPH,Humidity,HourlyPrecipIn,Conditions,Clouds,dailyrainin,SoftwareType,DateUTC
2013-07-08 00:22:00,70.0,-99.9,30.02,East,83,6.0,-999.0,-999,-99.99,,,-99.99,,2013-07-08 05:22:00,
2013-07-08 00:43:00,70.0,-99.9,30.01,ENE,78,6.0,-999.0,-999,-99.99,,,-99.99,,2013-07-08 05:43:00,
2013-07-08 00:53:00,70.0,-99.9,30.02,East,93,8.0,-999.0,-999,-99.99,,,-99.99,,2013-07-08 05:53:00,
2013-07-08 01:12:00,69.0,-99.9,30.02,East,87,5.0,-999.0,-999,-99.99,,,-99.99,,2013-07-08 06:12:00,
2013-07-08 01:43:00,70.0,69.0,30.02,NNW,341,6.0,-999.0,97,-99.99,,,-99.99,,2013-07-08 06:43:00,
2013-07-08 01:53:00,70.0,68.0,30.02,North,-999,8.0,-999.0,95,-99.99,,,-99.99,,2013-07-08 06:53:00,
2013-07-08 02:12:00,69.0,68.0,30.02,SE,139,7.0,-999.0,96,-99.99,,,-99.99,,2013-07-08 07:12:00,
2013-07-08 02:22:00,69.0,68.0,30.02,SE,139,7.0,-999.0,96,-99.99,,,-99.99,,2013-07-08 07:22:00,
2013-07-08 02:44:00,69.0,66.0,30.02,ENE,73,2.0,-999.0,91,-99.99,,,-99.99,,2013-07-08 07:44:00,
2013-07-08 03:12:00,67.0,66.0,30.02,ESE,112,6.0,-999.0,97,-99.99,,,-99.99,,2013-07-08 08:12:00,
2013-07-08 03:22:00,67.0,66.0,30.02,ESE,112,6.0,-999.0,97,-99.99,,,-99.99,,2013-07-08 08:22:00,
2013-07-08 03:42:00,67.0,65.0,30.02,North,-999,3.0,-999.0,91,-99.99,,,-99.99,,2013-07-08 08:42:00,
2013-07-08 03:53:00,67.0,64.0,30.02,NNW,332,3.0,-999.0,88,-99.99,,,-99.99,,2013-07-08 08:53:00,
2013-07-08 04:11:00,67.0,63.0,30.02,ENE,66,5.0,-999.0,88,-99.99,,,-99.99,,2013-07-08 09:11:00,
2013-07-08 05:11:00,66.0,63.0,30.00,North,-999,6.0,-999.0,90,-99.99,,,-99.99,,2013-07-08 10:11:00,
2013-07-08 05:22:00,66.0,63.0,30.00,North,-999,6.0,-999.0,90,-99.99,,,-99.99,,2013-07-08 10:22:00,
2013-07-08 05:43:00,65.0,62.0,30.00,East,90,5.0,-999.0,91,-99.99,,,-99.99,,2013-07-08 10:43:00,
2013-07-08 05:53:00,64.0,62.0,30.01,ENE,77,4.0,-999.0,94,-99.99,,,-99.99,,2013-07-08 10:53:00,
2013-07-08 06:11:00,64.0,62.0,30.01,SSW,211,6.0,-999.0,95,-99.99,,,-99.99,,2013-07-08 11:11:00,
2013-07-08 06:33:00,63.0,62.0,30.02,SW,216,4.0,-999.0,97,-99.99,,,-99.99,,2013-07-08 11:33:00,
2013-07-08 06:43:00,64.0,62.0,-100.00,ENE,69,3.0,-999.0,94,-99.99,,,-99.99,,2013-07-08 11:43:00,
2013-07-08 07:11:00,65.0,62.0,30.02,West,274,4.0,-999.0,91,-99.99,,,-99.99,,2013-07-08 12:11:00,
2013-07-08 09:12:00,71.0,65.0,30.05,SSE,159,4.0,-999.0,82,-99.99,,,-99.99,,2013-07-08 14:12:00,
2013-07-08 09:22:00,71.0,65.0,30.05,SSE,159,4.0,-999.0,82,-99.99,,,-99.99,,2013-07-08 14:22:00,
2013-07-08 09:43:00,72.0,67.0,30.06,ESE,120,6.0,-999.0,84,-99.99,,,-99.99,,2013-07-08 14:43:00,
2013-07-08 09:53:00,73.0,68.0,30.05,ESE,111,5.0,-999.0,84,-99.99,,,-99.99,,2013-07-08 14:53:00,
2013-07-08 10:22:00,75.0,70.0,30.05,SE,142,6.0,-999.0,85,-99.99,,,-99.99,,2013-07-08 15:22:00,
2013-07-08 10:43:00,77.0,71.0,30.04,SE,133,10.0,-999.0,82,-99.99,,,-99.99,,2013-07-08 15:43:00,
2013-07-08 10:53:00,78.0,71.0,30.05,SSE,156,8.0,-999.0,79,-99.99,,,-99.99,,2013-07-08 15:53:00,
2013-07-08 11:43:00,80.0,71.0,30.05,SSE,168,9.0,-999.0,76,-99.99,,,-99.99,,2013-07-08 16:43:00,
2013-07-08 13:20:00,83.0,71.0,30.05,SSE,159,6.0,-999.0,66,-99.99,,,-99.99,,2013-07-08 18:20:00,
2013-07-08 13:30:00,83.0,71.0,30.05,SSE,159,6.0,-999.0,66,-99.99,,,-99.99,,2013-07-08 18:30:00,
2013-07-08 13:48:00,83.0,68.0,30.04,SSW,198,3.0,-999.0,60,-99.99,,,-99.99,,2013-07-08 18:48:00,
2013-07-08 16:59:00,88.0,68.0,30.01,SSW,206,6.0,-999.0,52,-99.99,,,-99.99,,2013-07-08 21:59:00,
2013-07-08 17:20:00,87.0,68.0,30.01,SSW,193,7.0,-999.0,53,-99.99,,,-99.99,,2013-07-08 22:20:00,
2013-07-08 18:18:00,87.0,69.0,29.99,South,182,10.0,-999.0,55,-99.99,,,-99.99,,2013-07-08 23:18:00,
2013-07-08 18:30:00,87.0,69.0,29.99,South,182,10.0,-999.0,55,-99.99,,,-99.99,,2013-07-08 23:30:00,
2013-07-08 18:58:00,87.0,68.0,29.99,SSW,210,6.0,-999.0,54,-99.99,,,-99.99,,2013-07-08 23:58:00,
2013-07-08 19:19:00,87.0,68.0,29.99,SW,224,3.0,-999.0,54,-99.99,,,-99.99,,2013-07-09 00:19:00,
2013-07-08 19:41:00,86.0,69.0,29.99,South,191,4.0,-999.0,57,-99.99,,,-99.99,,2013-07-09 00:41:00,
2013-07-08 19:58:00,84.0,68.0,29.98,SSW,200,5.0,-999.0,59,-99.99,,,-99.99,,2013-07-09 00:58:00,
2013-07-08 20:19:00,83.0,69.0,29.98,SSW,192,3.0,-999.0,63,-99.99,,,-99.99,,2013-07-09 01:19:00,
2013-07-08 20:51:00,83.0,71.0,29.98,ESE,114,5.0,-999.0,69,-99.99,,,-99.99,,2013-07-09 01:51:00,
2013-07-08 21:22:00,-999.0,-99.9,29.98,SSE,152,2.0,-999.0,73,-99.99,,,-99.99,,2013-07-09 02:22:00,
2013-07-08 21:42:00,80.0,73.0,29.97,South,173,4.0,-999.0,79,-99.99,,,-99.99,,2013-07-09 02:42:00,
2013-07-08 22:20:00,79.0,73.0,29.99,SSW,200,5.0,-999.0,82,-99.99,,,-99.99,,2013-07-09 03:20:00,
2013-07-08 23:02:00,78.0,74.0,29.98,SW,217,4.0,-999.0,88,-99.99,,,-99.99,,2013-07-09 04:02:00,
2013-07-08 23:11:00,78.0,73.0,29.98,SSW,213,6.0,-999.0,84,-99.99,,,-99.99,,2013-07-09 04:11:00,
2013-07-08 23:34:00,78.0,70.0,29.96,SSW,210,8.0,-999.0,77,-99.99,,,-99.99,,2013-07-09 04:34:00,
2013-07-08 23:42:00,77.0,71.0,29.96,SW,221,7.0,-999.0,80,-99.99,,,-99.99,,2013-07-09 04:42:00,